Time,TemperatureF,DewpointF,PressureIn,WindDirection,WindDirectionDegrees,WindSpeedMPH,WindSpeedGustMPH,Humidity,HourlyPrecipIn,Conditions,Clouds,dailyrainin,SolarRadiationWatts/m^2,SoftwareType,DateUTC
2013-06-08 00:01:00,70.0,70.0,29.41,SE,140,3.0,7.0,100,0.03,,,3.06,0.000000,,2013-06-08 04:01:00,
2013-06-08 00:03:00,70.0,70.0,29.41,SE,140,3.0,7.0,100,0.03,,,3.06,0.000000,,2013-06-08 04:03:00,
2013-06-08 00:13:00,70.0,70.0,29.41,SE,140,3.0,7.0,100,0.03,,,3.06,0.000000,,2013-06-08 04:13:00,
2013-06-08 00:33:00,68.0,68.0,29.42,WSW,244,2.0,8.0,100,0.05,,,3.11,0.000000,,2013-06-08 04:33:00,
2013-06-08 00:42:00,68.0,68.0,29.42,WSW,244,2.0,8.0,100,0.05,,,3.11,0.000000,,2013-06-08 04:42:00,
2013-06-08 00:53:00,68.0,68.0,29.42,WSW,244,2.0,8.0,100,0.05,,,3.11,0.000000,,2013-06-08 04:53:00,
2013-06-08 01:02:00,68.0,68.0,29.42,WSW,244,2.0,8.0,100,0.05,,,3.11,0.000000,,2013-06-08 05:02:00,
2013-06-08 01:12:00,68.0,68.0,29.42,WSW,244,2.0,8.0,100,0.05,,,3.11,0.000000,,2013-06-08 05:12:00,
2013-06-08 01:32:00,67.0,67.0,29.42,NNE,21,2.0,7.0,100,0.00,,,3.10,0.000000,,2013-06-08 05:32:00,
2013-06-08 01:42:00,67.0,67.0,29.42,NNE,21,2.0,7.0,100,0.00,,,3.10,0.000000,,2013-06-08 05:42:00,
2013-06-08 01:53:00,67.0,67.0,29.42,NNE,21,2.0,7.0,100,0.00,,,3.10,0.000000,,2013-06-08 05:53:00,
2013-06-08 02:02:00,67.0,67.0,29.42,NNE,21,2.0,7.0,100,0.00,,,3.10,0.000000,,2013-06-08 06:02:00,
2013-06-08 02:13:00,67.0,67.0,29.42,NNE,21,2.0,7.0,100,0.00,,,3.10,0.000000,,2013-06-08 06:13:00,
2013-06-08 02:32:00,67.0,67.0,29.45,SSW,212,4.0,7.0,100,0.02,,,3.09,0.000000,,2013-06-08 06:32:00,
2013-06-08 02:42:00,67.0,67.0,29.45,SSW,212,4.0,7.0,100,0.02,,,3.09,0.000000,,2013-06-08 06:42:00,
2013-06-08 02:53:00,67.0,67.0,29.45,SSW,212,4.0,7.0,100,0.02,,,3.09,0.000000,,2013-06-08 06:53:00,
2013-06-08 03:02:00,67.0,67.0,29.45,SSW,212,4.0,7.0,100,0.02,,,3.09,0.000000,,2013-06-08 07:02:00,
2013-06-08 03:12:00,67.0,67.0,29.45,SSW,212,4.0,7.0,100,0.02,,,3.09,0.000000,,2013-06-08 07:12:00,
2013-06-08 03:32:00,68.0,68.0,29.44,WSW,255,2.0,8.0,100,0.00,,,3.06,0.000000,,2013-06-08 07:32:00,
2013-06-08 03:42:00,68.0,68.0,29.44,WSW,255,2.0,8.0,100,0.00,,,3.06,0.000000,,2013-06-08 07:42:00,
2013-06-08 03:52:00,68.0,68.0,29.44,WSW,255,2.0,8.0,100,0.00,,,3.06,0.000000,,2013-06-08 07:52:00,
2013-06-08 04:02:00,68.0,68.0,29.44,WSW,255,2.0,8.0,100,0.00,,,3.06,0.000000,,2013-06-08 08:02:00,
2013-06-08 04:12:00,68.0,68.0,29.44,WSW,255,2.0,8.0,100,0.00,,,3.06,0.000000,,2013-06-08 08:12:00,
2013-06-08 04:32:00,66.0,66.0,29.44,SW,221,1.0,4.0,100,0.01,,,3.03,0.000000,,2013-06-08 08:32:00,
2013-06-08 04:42:00,66.0,66.0,29.44,SW,221,1.0,4.0,100,0.01,,,3.03,0.000000,,2013-06-08 08:42:00,
2013-06-08 04:53:00,66.0,66.0,29.44,SW,221,1.0,4.0,100,0.01,,,3.03,0.000000,,2013-06-08 08:53:00,
2013-06-08 05:02:00,66.0,66.0,29.44,SW,221,1.0,4.0,100,0.01,,,3.03,0.000000,,2013-06-08 09:02:00,
2013-06-08 05:12:00,66.0,66.0,29.44,SW,221,1.0,4.0,100,0.01,,,3.03,0.000000,,2013-06-08 09:12:00,
2013-06-08 05:33:00,66.0,66.0,29.46,SW,227,2.0,4.0,100,0.00,,,2.78,0.000000,,2013-06-08 09:33:00,
2013-06-08 05:43:00,66.0,66.0,29.46,SW,227,2.0,4.0,100,0.00,,,2.78,0.000000,,2013-06-08 09:43:00,
2013-06-08 05:53:00,66.0,66.0,29.46,SW,227,2.0,4.0,100,0.00,,,2.78,0.000000,,2013-06-08 09:53:00,
2013-06-08 06:03:00,66.0,66.0,29.46,SW,227,2.0,4.0,100,0.00,,,2.78,0.000000,,2013-06-08 10:03:00,
2013-06-08 06:12:00,66.0,66.0,29.46,SW,227,2.0,4.0,100,0.00,,,2.78,0.000000,,2013-06-08 10:12:00,
2013-06-08 06:33:00,66.0,66.0,29.47,SSW,209,2.0,5.0,100,0.00,,,2.09,0.000000,,2013-06-08 10:33:00,
2013-06-08 06:43:00,66.0,66.0,29.47,SSW,209,2.0,5.0,100,0.00,,,2.09,0.000000,,2013-06-08 10:43:00,
2013-06-08 06:53:00,66.0,66.0,29.47,SSW,209,2.0,5.0,100,0.00,,,2.09,0.000000,,2013-06-08 10:53:00,
2013-06-08 07:03:00,66.0,66.0,29.47,SSW,209,2.0,5.0,100,0.00,,,2.09,0.000000,,2013-06-08 11:03:00,
2013-06-08 07:12:00,66.0,66.0,29.47,SSW,209,2.0,5.0,100,0.00,,,2.09,0.000000,,2013-06-08 11:12:00,
2013-06-08 07:42:00,68.0,68.0,29.49,SW,222,1.0,4.0,100,0.00,,,2.04,20.000000,,2013-06-08 11:42:00,
2013-06-08 07:52:00,68.0,68.0,29.49,SW,222,1.0,4.0,100,0.00,,,2.04,20.000000,,2013-06-08 11:52:00,
2013-06-08 08:02:00,68.0,68.0,29.49,SW,222,1.0,4.0,100,0.00,,,2.04,20.000000,,2013-06-08 12:02:00,
2013-06-08 08:12:00,68.0,68.0,29.49,SW,222,1.0,4.0,100,0.00,,,2.04,20.000000,,2013-06-08 12:12:00,
2013-06-08 08:33:00,68.0,68.0,29.50,South,183,3.0,5.0,100,0.00,,,2.03,67.000000,,2013-06-08 12:33:00,
2013-06-08 08:42:00,68.0,68.0,29.50,South,183,3.0,5.0,100,0.00,,,2.03,67.000000,,2013-06-08 12:42:00,
2013-06-08 08:52:00,68.0,68.0,29.50,South,183,3.0,5.0,100,0.00,,,2.03,67.000000,,2013-06-08 12:52:00,
2013-06-08 09:02:00,68.0,68.0,29.50,South,183,3.0,5.0,100,0.00,,,2.03,67.000000,,2013-06-08 13:02:00,
2013-06-08 09:12:00,68.0,68.0,29.50,South,183,3.0,5.0,100,0.00,,,2.03,67.000000,,2013-06-08 13:12:00,
2013-06-08 09:32:00,70.0,70.0,29.54,WSW,237,3.0,7.0,100,0.00,,,2.03,83.000000,,2013-06-08 13:32:00,
2013-06-08 09:42:00,70.0,70.0,29.54,WSW,237,3.0,7.0,100,0.00,,,2.03,83.000000,,2013-06-08 13:42:00,
2013-06-08 09:53:00,70.0,70.0,29.54,WSW,237,3.0,7.0,100,0.00,,,2.03,83.000000,,2013-06-08 13:53:00,
2013-06-08 10:02:00,70.0,70.0,29.54,WSW,237,3.0,7.0,100,0.00,,,2.03,83.000000,,2013-06-08 14:02:00,
2013-06-08 10:12:00,70.0,70.0,29.54,WSW,237,3.0,7.0,100,0.00,,,2.03,83.000000,,2013-06-08 14:12:00,
2013-06-08 10:32:00,66.0,65.0,29.56,North,359,6.0,24.0,98,0.01,,,1.99,175.000000,,2013-06-08 14:32:00,
2013-06-08 10:42:00,66.0,65.0,29.56,North,359,6.0,24.0,98,0.01,,,1.99,175.000000,,2013-06-08 14:42:00,
2013-06-08 10:52:00,66.0,65.0,29.56,North,359,6.0,24.0,98,0.01,,,1.99,175.000000,,2013-06-08 14:52:00,
2013-06-08 11:02:00,66.0,65.0,29.56,North,359,6.0,24.0,98,0.01,,,1.99,175.000000,,2013-06-08 15:02:00,
2013-06-08 11:12:00,66.0,65.0,29.56,North,359,6.0,24.0,98,0.01,,,1.99,175.000000,,2013-06-08 15:12:00,
2013-06-08 11:33:00,73.0,65.0,29.57,SE,140,2.0,11.0,77,0.00,,,1.57,623.000000,,2013-06-08 15:33:00,
2013-06-08 11:43:00,73.0,65.0,29.57,SE,140,2.0,11.0,77,0.00,,,1.57,623.000000,,2013-06-08 15:43:00,
2013-06-08 11:53:00,73.0,65.0,29.57,SE,140,2.0,11.0,77,0.00,,,1.57,623.000000,,2013-06-08 15:53:00,
2013-06-08 12:03:00,73.0,65.0,29.57,SE,140,2.0,11.0,77,0.00,,,1.57,623.000000,,2013-06-08 16:03:00,
2013-06-08 12:12:00,73.0,65.0,29.57,SE,140,2.0,11.0,77,0.00,,,1.57,623.000000,,2013-06-08 16:12:00,
2013-06-08 12:33:00,76.0,66.0,29.58,NNW,338,4.0,10.0,72,0.00,,,1.45,625.000000,,2013-06-08 16:33:00,
2013-06-08 12:42:00,76.0,66.0,29.58,NNW,338,4.0,10.0,72,0.00,,,1.45,625.000000,,2013-06-08 16:42:00,
2013-06-08 12:53:00,76.0,66.0,29.58,NNW,338,4.0,10.0,72,0.00,,,1.45,625.000000,,2013-06-08 16:53:00,
2013-06-08 13:02:00,76.0,66.0,29.58,NNW,338,4.0,10.0,72,0.00,,,1.45,625.000000,,2013-06-08 17:02:00,
2013-06-08 13:12:00,76.0,66.0,29.58,NNW,338,4.0,10.0,72,0.00,,,1.45,625.000000,,2013-06-08 17:12:00,
2013-06-08 13:32:00,77.0,66.0,29.58,SSE,151,5.0,9.0,68,0.00,,,0.98,561.000000,,2013-06-08 17:32:00,
2013-06-08 13:42:00,77.0,66.0,29.58,SSE,151,5.0,9.0,68,0.00,,,0.98,561.000000,,2013-06-08 17:42:00,
2013-06-08 13:52:00,77.0,66.0,29.58,SSE,151,5.0,9.0,68,0.00,,,0.98,561.000000,,2013-06-08 17:52:00,
2013-06-08 14:02:00,77.0,66.0,29.58,SSE,151,5.0,9.0,68,0.00,,,0.98,561.000000,,2013-06-08 18:02:00,
2013-06-08 14:12:00,77.0,66.0,29.58,SSE,151,5.0,9.0,68,0.00,,,0.98,561.000000,,2013-06-08 18:12:00,
2013-06-08 14:32:00,79.0,66.0,29.57,West,260,5.0,11.0,65,0.00,,,0.53,646.000000,,2013-06-08 18:32:00,
2013-06-08 14:42:00,79.0,66.0,29.57,West,260,5.0,11.0,65,0.00,,,0.53,646.000000,,2013-06-08 18:42:00,
2013-06-08 14:52:00,79.0,66.0,29.57,West,260,5.0,11.0,65,0.00,,,0.53,646.000000,,2013-06-08 18:52:00,
2013-06-08 15:03:00,79.0,66.0,29.57,West,260,5.0,11.0,65,0.00,,,0.53,646.000000,,2013-06-08 19:03:00,
2013-06-08 15:13:00,79.0,66.0,29.57,West,260,5.0,11.0,65,0.00,,,0.53,646.000000,,2013-06-08 19:13:00,
2013-06-08 15:42:00,82.0,66.0,29.57,WSW,246,7.0,15.0,59,0.00,,,0.35,908.000000,,2013-06-08 19:42:00,
2013-06-08 15:53:00,82.0,66.0,29.57,WSW,246,7.0,15.0,59,0.00,,,0.35,908.000000,,2013-06-08 19:53:00,
2013-06-08 16:02:00,82.0,66.0,29.57,WSW,246,7.0,15.0,59,0.00,,,0.35,908.000000,,2013-06-08 20:02:00,
2013-06-08 16:12:00,82.0,66.0,29.57,WSW,246,7.0,15.0,59,0.00,,,0.35,908.000000,,2013-06-08 20:12:00,
2013-06-08 16:32:00,84.0,66.0,29.58,WSW,249,6.0,14.0,55,0.00,,,0.16,781.000000,,2013-06-08 20:32:00,
2013-06-08 16:42:00,84.0,66.0,29.58,WSW,249,6.0,14.0,55,0.00,,,0.16,781.000000,,2013-06-08 20:42:00,
2013-06-08 16:53:00,84.0,66.0,29.58,WSW,249,6.0,14.0,55,0.00,,,0.16,781.000000,,2013-06-08 20:53:00,
2013-06-08 17:02:00,84.0,66.0,29.58,WSW,249,6.0,14.0,55,0.00,,,0.16,781.000000,,2013-06-08 21:02:00,
2013-06-08 17:13:00,84.0,66.0,29.58,WSW,249,6.0,14.0,55,0.00,,,0.16,781.000000,,2013-06-08 21:13:00,
2013-06-08 17:33:00,85.0,66.0,29.58,WNW,287,4.0,19.0,53,0.00,,,-99.99,609.000000,,2013-06-08 21:33:00,
2013-06-08 17:43:00,85.0,66.0,29.58,WNW,287,4.0,19.0,53,0.00,,,-99.99,609.000000,,2013-06-08 21:43:00,
2013-06-08 17:53:00,85.0,66.0,29.58,WNW,287,4.0,19.0,53,0.00,,,-99.99,609.000000,,2013-06-08 21:53:00,
2013-06-08 18:02:00,85.0,66.0,29.58,WNW,287,4.0,19.0,53,0.00,,,-99.99,609.000000,,2013-06-08 22:02:00,
2013-06-08 18:12:00,85.0,66.0,29.58,WNW,287,4.0,19.0,53,0.00,,,-99.99,609.000000,,2013-06-08 22:12:00,
2013-06-08 18:33:00,85.0,66.0,29.60,West,269,4.0,12.0,53,0.00,,,0.15,477.000000,,2013-06-08 22:33:00,
2013-06-08 18:43:00,85.0,66.0,29.60,West,269,4.0,12.0,53,0.00,,,0.15,477.000000,,2013-06-08 22:43:00,
2013-06-08 18:53:00,85.0,66.0,29.60,West,269,4.0,12.0,53,0.00,,,0.15,477.000000,,2013-06-08 22:53:00,
2013-06-08 19:02:00,85.0,66.0,29.60,West,269,4.0,12.0,53,0.00,,,0.15,477.000000,,2013-06-08 23:02:00,
2013-06-08 19:12:00,85.0,66.0,29.60,West,269,4.0,12.0,53,0.00,,,0.15,477.000000,,2013-06-08 23:12:00,
2013-06-08 19:42:00,86.0,70.0,29.61,SW,225,1.0,5.0,60,0.00,,,0.15,243.000000,,2013-06-08 23:42:00,
2013-06-08 19:52:00,86.0,70.0,29.61,SW,225,1.0,5.0,60,0.00,,,0.15,243.000000,,2013-06-08 23:52:00,
2013-06-08 20:02:00,86.0,70.0,29.61,SW,225,1.0,5.0,60,0.00,,,0.15,243.000000,,2013-06-09 00:02:00,
2013-06-08 20:12:00,86.0,70.0,29.61,SW,225,1.0,5.0,60,0.00,,,0.15,243.000000,,2013-06-09 00:12:00,
2013-06-08 20:42:00,72.0,69.0,29.63,NNW,338,0.0,2.0,90,-99.99,,,0.15,48.000000,,2013-06-09 00:42:00,
2013-06-08 20:52:00,72.0,69.0,29.63,NNW,338,0.0,2.0,90,-99.99,,,0.15,48.000000,,2013-06-09 00:52:00,
2013-06-08 21:02:00,72.0,69.0,29.63,NNW,338,0.0,2.0,90,-99.99,,,0.15,48.000000,,2013-06-09 01:02:00,
2013-06-08 21:12:00,72.0,69.0,29.63,NNW,338,0.0,2.0,90,-99.99,,,0.15,48.000000,,2013-06-09 01:12:00,
2013-06-08 21:32:00,70.0,70.0,29.65,SSW,204,1.0,6.0,100,0.00,,,0.13,2.000000,,2013-06-09 01:32:00,
2013-06-08 21:42:00,70.0,70.0,29.65,SSW,204,1.0,6.0,100,0.00,,,0.13,2.000000,,2013-06-09 01:42:00,
2013-06-08 21:52:00,70.0,70.0,29.65,SSW,204,1.0,6.0,100,0.00,,,0.13,2.000000,,2013-06-09 01:52:00,
2013-06-08 22:02:00,70.0,70.0,29.65,SSW,204,1.0,6.0,100,0.00,,,0.13,2.000000,,2013-06-09 02:02:00,
2013-06-08 22:12:00,70.0,70.0,29.65,SSW,204,1.0,6.0,100,0.00,,,0.13,2.000000,,2013-06-09 02:12:00,
2013-06-08 22:32:00,67.0,67.0,29.68,WNW,282,1.0,3.0,100,0.00,,,0.12,0.000000,,2013-06-09 02:32:00,
2013-06-08 22:42:00,67.0,67.0,29.68,WNW,282,1.0,3.0,100,0.00,,,0.12,0.000000,,2013-06-09 02:42:00,
2013-06-08 22:52:00,67.0,67.0,29.68,WNW,282,1.0,3.0,100,0.00,,,0.12,0.000000,,2013-06-09 02:52:00,
2013-06-08 23:02:00,67.0,67.0,29.68,WNW,282,1.0,3.0,100,0.00,,,0.12,0.000000,,2013-06-09 03:02:00,
2013-06-08 23:12:00,67.0,67.0,29.68,WNW,282,1.0,3.0,100,0.00,,,0.12,0.000000,,2013-06-09 03:12:00,
2013-06-08 23:33:00,66.0,66.0,29.69,WNW,289,2.0,3.0,100,0.00,,,0.09,0.000000,,2013-06-09 03:33:00,
2013-06-08 23:43:00,66.0,66.0,29.69,WNW,289,2.0,3.0,100,0.00,,,0.09,0.000000,,2013-06-09 03:43:00,
2013-06-08 23:54:00,66.0,66.0,29.69,WNW,289,2.0,3.0,100,0.00,,,0.09,0.000000,,2013-06-09 03:54:00,